Location: Arcizac
(43.0933°N, 0.0112°E)
Time: 19:25:59
(UTC+00:00)

Envisat - Pass Details

Date: 14 December 2019
Orbit: 764 x 766 km, 98.1° (Epoch: 27 January)

Event Time Altitude Azimuth Distance (km) Brightness Sun altitude
Rises 18:26:17 0° 183° (S) 3,218 6.4 -21.2°
Reaches altitude 10° 18:28:41 10° 190° (S) 2,297 5.7 -21.6°
Maximum altitude 18:33:30 43° 262° (W) 1,066 4.2 -22.5°
Drops below altitude 10° 18:38:21 10° 334° (NNW) 2,313 5.7 -23.4°
Sets 18:40:47 0° 341° (NNW) 3,244 6.4 -23.8°
